MST,Max TemperatureF,Mean TemperatureF,Min TemperatureF,Max Dew PointF,MeanDew PointF,Min DewpointF,Max Humidity, Mean Humidity, Min Humidity, Max Sea Level PressureIn, Mean Sea Level PressureIn, Min Sea Level PressureIn, Max VisibilityMiles, Mean VisibilityMiles, Min VisibilityMiles, Max Wind SpeedMPH, Mean Wind SpeedMPH, Max Gust SpeedMPH,PrecipitationIn, CloudCover, Events, WindDirDegrees
2014-2-1,33,23,13,23,19,12,96,83,69,30.06,29.81,29.69,10,8,2,16,6,21,0.01,7,Snow,4
2014-2-2,24,11,-2,13,4,-6,100,77,54,30.27,30.13,29.96,10,7,0,10,4,12,T,3,Fog-Snow,249
2014-2-3,27,10,-7,12,2,-10,96,76,55,30.22,30.04,29.86,10,10,10,9,3,12,T,2,,317
2014-2-4,29,18,7,20,13,0,96,82,68,30.13,29.83,29.69,10,7,0,15,4,18,0.02,6,Fog-Snow,37
2014-2-5,22,8,-7,11,1,-11,100,81,61,30.31,30.14,29.94,10,7,0,9,3,11,T,5,Fog-Snow,335
2014-2-6,27,9,-10,14,0,-14,91,73,55,30.28,30.15,29.93,10,9,2,10,3,13,0.00,2,,329
2014-2-7,26,13,0,17,8,-1,100,80,60,30.21,30.00,29.84,10,7,0,10,5,11,T,4,Fog,312
2014-2-8,40,19,-2,21,12,-5,91,66,40,30.31,30.19,30.09,10,10,10,15,5,18,0.00,0,,204
2014-2-9,48,31,13,28,23,11,96,73,49,30.21,30.04,29.87,10,10,10,17,5,22,0.00,1,,229
2014-2-10,45,31,16,32,24,14,92,73,53,30.11,30.01,29.89,10,8,0,17,4,21,T,3,Fog-Snow,347
2014-2-11,37,25,13,20,15,9,92,65,38,30.24,30.16,30.06,10,10,10,13,4,17,0.00,0,,300
2014-2-12,38,25,11,19,15,9,88,66,44,30.35,30.22,30.10,10,10,10,15,4,17,0.00,0,,268
2014-2-13,49,33,17,27,22,14,88,64,39,30.22,30.09,29.95,10,10,10,12,5,13,0.00,0,,155
2014-2-14,50,37,23,29,25,21,88,64,39,30.12,30.05,29.97,10,10,10,18,6,23,0.00,1,,66
2014-2-15,62,44,26,30,26,18,92,56,19,30.17,30.07,29.96,10,10,10,14,7,20,0.00,0,,178
2014-2-16,55,41,27,26,22,14,85,55,24,30.06,29.96,29.85,10,10,10,26,9,32,0.00,0,,253
2014-2-17,51,37,23,25,15,6,69,45,20,30.31,30.14,30.00,10,10,10,17,6,22,0.00,0,,262
2014-2-18,56,39,21,27,17,7,88,52,15,30.12,30.00,29.93,10,10,10,13,5,16,0.00,0,,212
2014-2-19,54,42,29,30,22,16,89,56,22,29.91,29.68,29.54,10,9,2,29,13,36,0.01,3,Snow,245
2014-2-20,33,25,16,13,3,-3,67,47,27,30.22,30.03,29.60,10,10,10,28,14,37,0.00,0,,354
2014-2-21,43,27,11,18,10,4,83,54,24,30.21,30.09,29.98,10,10,10,12,4,12,0.00,0,,229
2014-2-22,49,34,18,20,16,10,84,54,23,30.02,29.94,29.82,10,10,10,26,7,34,0.00,1,,183
2014-2-23,53,35,16,20,15,11,88,54,19,30.14,30.05,29.98,10,10,10,14,5,18,0.00,0,,125
2014-2-24,56,36,15,21,11,2,80,46,12,30.17,30.07,29.98,10,10,10,10,5,13,0.00,0,,141
2014-2-25,56,36,15,21,16,10,88,52,16,30.14,29.99,29.88,10,10,10,10,4,12,0.00,1,,123
2014-2-26,54,36,18,22,19,15,84,54,24,30.02,29.95,29.88,10,10,10,13,4,17,0.00,2,,11
2014-2-27,53,36,18,33,25,16,96,62,28,29.92,29.75,29.62,10,10,5,35,9,40,0.01,4,Rain,209
2014-2-28,53,37,21,28,20,11,100,60,20,29.94,29.83,29.66,10,10,10,23,8,28,0.00,2,,180